• în Republica Moldova
  • Lista ţărilor
  • Pe 7 zile
  • Temperatura apei
  • Hartă satelitară
  • Meteo pe hartă
  • Widget-uri
  • user-avatar
    Intrare

    Meteo pe oră la Baydiki

    Astăzi, 17 August, Vineri

    Timp Temperatura Precipitaţii Vânt Presiune Umiditate
    00:00 +15°C° 0 mm 2 m/s 745 mmHg 93%
    01:00 +14°C° 0 mm 2 m/s 745 mmHg 94%
    02:00 +14°C° 0 mm 2 m/s 745 mmHg 94%
    03:00 +14°C° 0 mm 2 m/s 746 mmHg 96%
    04:00 +14°C° 0 mm 2 m/s 746 mmHg 95%
    05:00 +13°C° 0 mm 2 m/s 746 mmHg 95%
    06:00 +13°C° 0 mm 2 m/s 747 mmHg 95%
    07:00 +14°C° 0 mm 3 m/s 747 mmHg 87%
    08:00 +17°C° 0 mm 3 m/s 747 mmHg 80%
    09:00 +18°C° 0 mm 3 m/s 747 mmHg 70%
    10:00 +19°C° 0 mm 3 m/s 747 mmHg 64%
    11:00 +21°C° 0 mm 3 m/s 748 mmHg 59%
    12:00 +22°C° 0 mm 3 m/s 748 mmHg 54%
    13:00 +22°C° 0 mm 3 m/s 747 mmHg 52%
    14:00 +24°C° 0 mm 3 m/s 747 mmHg 49%
    15:00 +24°C° 0 mm 2 m/s 747 mmHg 48%
    16:00 +24°C° 0 mm 2 m/s 747 mmHg 51%
    17:00 +23°C° 0 mm 2 m/s 747 mmHg 54%
    18:00 +23°C° 0 mm 2 m/s 747 mmHg 57%
    19:00 +20°C° 0 mm 2 m/s 747 mmHg 61%
    20:00 +18°C° 0 mm 2 m/s 747 mmHg 65%
    21:00 +16°C° 0 mm 2 m/s 747 mmHg 70%
    22:00 +15°C° 0 mm 2 m/s 747 mmHg 71%
    23:00 +15°C° 0 mm 2 m/s 747 mmHg 73%

    Mâine, 18 August, Sâmbătă

    Timp Temperatura Precipitaţii Vânt Presiune Umiditate
    00:00 +14°C° 0 mm 2 m/s 747 mmHg 75%
    01:00 +14°C° 0 mm 2 m/s 747 mmHg 77%
    02:00 +13°C° 0 mm 2 m/s 748 mmHg 78%
    03:00 +13°C° 0 mm 2 m/s 748 mmHg 80%
    04:00 +13°C° 0 mm 2 m/s 748 mmHg 81%
    05:00 +13°C° 0 mm 1 m/s 748 mmHg 83%
    06:00 +13°C° 0 mm 1 m/s 748 mmHg 84%
    07:00 +15°C° 0 mm 1 m/s 748 mmHg 77%
    08:00 +18°C° 0 mm 1 m/s 749 mmHg 71%
    09:00 +19°C° 0 mm 2 m/s 749 mmHg 64%
    10:00 +20°C° 0 mm 2 m/s 749 mmHg 60%
    11:00 +21°C° 0 mm 2 m/s 748 mmHg 55%
    12:00 +24°C° 0 mm 2 m/s 748 mmHg 50%
    13:00 +24°C° 0 mm 2 m/s 748 mmHg 48%
    14:00 +24°C° 0 mm 2 m/s 748 mmHg 47%
    15:00 +25°C° 0 mm 2 m/s 748 mmHg 45%
    16:00 +24°C° 0 mm 1 m/s 748 mmHg 49%
    17:00 +24°C° 0 mm 1 m/s 747 mmHg 53%
    18:00 +24°C° 0 mm 1 m/s 747 mmHg 56%
    19:00 +22°C° 0 mm 1 m/s 747 mmHg 60%
    20:00 +20°C° 0 mm 1 m/s 747 mmHg 64%
    21:00 +18°C° 0 mm 1 m/s 747 mmHg 68%
    22:00 +16°C° 0 mm 1 m/s 747 mmHg 69%
    23:00 +16°C° 0 mm 1 m/s 747 mmHg 71%

    Poimâine, 19 August, Duminică

    Timp Temperatura Precipitaţii Vânt Presiune Umiditate
    00:00 +15°C° 0 mm 1 m/s 748 mmHg 72%
    01:00 +15°C° 0 mm 1 m/s 748 mmHg 74%
    02:00 +14°C° 0 mm 1 m/s 748 mmHg 75%
    03:00 +14°C° 0 mm 1 m/s 748 mmHg 77%
    04:00 +14°C° 0 mm 1 m/s 748 mmHg 78%
    05:00 +14°C° 0 mm 1 m/s 748 mmHg 79%
    06:00 +14°C° 0 mm 1 m/s 748 mmHg 80%
    07:00 +16°C° 0 mm 1 m/s 748 mmHg 74%
    08:00 +18°C° 0 mm 2 m/s 748 mmHg 69%
    09:00 +20°C° 0 mm 2 m/s 748 mmHg 63%
    10:00 +21°C° 0 mm 2 m/s 748 mmHg 59%
    11:00 +22°C° 0 mm 3 m/s 747 mmHg 54%
    12:00 +25°C° 0 mm 3 m/s 747 mmHg 50%
    13:00 +25°C° 0 mm 3 m/s 747 mmHg 50%
    14:00 +25°C° 0 mm 3 m/s 746 mmHg 50%
    15:00 +26°C° 0 mm 4 m/s 746 mmHg 49%
    16:00 +25°C° 0 mm 3 m/s 746 mmHg 53%
    17:00 +25°C° 0 mm 3 m/s 745 mmHg 58%
    18:00 +24°C° 0 mm 3 m/s 745 mmHg 62%
    19:00 +21°C° 0 mm 3 m/s 745 mmHg 66%
    20:00 +20°C° 0 mm 3 m/s 745 mmHg 70%
    21:00 +18°C° 0 mm 3 m/s 745 mmHg 75%
    22:00 +17°C° 0 mm 3 m/s 745 mmHg 74%
    23:00 +17°C° 0 mm 3 m/s 744 mmHg 74%

    20 August, Luni

    Timp Temperatura Precipitaţii Vânt Presiune Umiditate
    00:00 +17°C° 0 mm 3 m/s 744 mmHg 74%
    01:00 +16°C° 0 mm 3 m/s 744 mmHg 74%
    02:00 +16°C° 0 mm 3 m/s 744 mmHg 75%
    03:00 +16°C° 0 mm 3 m/s 744 mmHg 76%
    04:00 +16°C° 0 mm 3 m/s 744 mmHg 77%
    05:00 +16°C° 0 mm 3 m/s 743 mmHg 78%
    06:00 +14°C° 0 mm 3 m/s 743 mmHg 79%
    07:00 +17°C° 0 mm 4 m/s 743 mmHg 75%
    08:00 +19°C° 0 mm 4 m/s 743 mmHg 71%
    09:00 +20°C° 0 mm 4 m/s 743 mmHg 68%
    10:00 +22°C° 0 mm 4 m/s 743 mmHg 65%
    11:00 +23°C° 0 mm 4 m/s 743 mmHg 63%
    12:00 +25°C° 0 mm 5 m/s 743 mmHg 61%
    13:00 +26°C° 0,4 mm 5 m/s 743 mmHg 61%
    14:00 +26°C° 0,4 mm 5 m/s 743 mmHg 62%
    15:00 +26°C° 0,4 mm 5 m/s 742 mmHg 62%
    16:00 +26°C° 0,4 mm 4 m/s 742 mmHg 65%
    17:00 +25°C° 0,4 mm 3 m/s 742 mmHg 68%
    18:00 +25°C° 0,4 mm 3 m/s 742 mmHg 71%
    19:00 +22°C° 0 mm 3 m/s 742 mmHg 76%
    20:00 +21°C° 0 mm 2 m/s 742 mmHg 81%
    21:00 +19°C° 0 mm 2 m/s 742 mmHg 87%
    22:00 +19°C° 0 mm 2 m/s 742 mmHg 88%
    23:00 +18°C° 0 mm 2 m/s 742 mmHg 89%

    21 August, Marţi

    Timp Temperatura Precipitaţii Vânt Presiune Umiditate
    00:00 +18°C° 0 mm 2 m/s 742 mmHg 90%
    01:00 +17°C° 0 mm 2 m/s 742 mmHg 91%
    02:00 +17°C° 0 mm 2 m/s 742 mmHg 91%
    03:00 +17°C° 0 mm 2 m/s 742 mmHg 91%
    04:00 +17°C° 0 mm 2 m/s 742 mmHg 92%
    05:00 +17°C° 0 mm 2 m/s 742 mmHg 92%
    06:00 +16°C° 0 mm 2 m/s 742 mmHg 93%
    07:00 +18°C° 0 mm 2 m/s 742 mmHg 87%
    08:00 +20°C° 0 mm 2 m/s 742 mmHg 81%
    09:00 +21°C° 0 mm 2 m/s 742 mmHg 75%
    10:00 +24°C° 0 mm 3 m/s 742 mmHg 70%
    11:00 +25°C° 0 mm 3 m/s 741 mmHg 65%
    12:00 +26°C° 0 mm 3 m/s 741 mmHg 60%
    13:00 +26°C° 0 mm 4 m/s 741 mmHg 59%
    14:00 +27°C° 0 mm 4 m/s 740 mmHg 58%
    15:00 +27°C° 0 mm 4 m/s 740 mmHg 56%
    16:00 +27°C° 0 mm 4 m/s 740 mmHg 60%
    17:00 +26°C° 0 mm 4 m/s 740 mmHg 64%
    18:00 +26°C° 0 mm 3 m/s 739 mmHg 67%
    19:00 +24°C° 0,2 mm 3 m/s 739 mmHg 73%
    20:00 +21°C° 0,2 mm 3 m/s 739 mmHg 80%
    21:00 +20°C° 0,2 mm 3 m/s 739 mmHg 86%
    22:00 +19°C° 0 mm 3 m/s 738 mmHg 87%
    23:00 +19°C° 0 mm 4 m/s 738 mmHg 87%

    22 August, Miercuri

    Timp Temperatura Precipitaţii Vânt Presiune Umiditate
    00:00 +19°C° 0 mm 4 m/s 737 mmHg 88%
    01:00 +19°C° 0 mm 4 m/s 737 mmHg 88%
    02:00 +19°C° 0 mm 4 m/s 737 mmHg 87%
    03:00 +19°C° 0 mm 5 m/s 737 mmHg 87%
    04:00 +19°C° 0 mm 5 m/s 737 mmHg 88%
    05:00 +17°C° 0 mm 5 m/s 737 mmHg 89%
    06:00 +17°C° 0 mm 5 m/s 737 mmHg 90%
    07:00 +17°C° 0 mm 5 m/s 738 mmHg 85%
    08:00 +17°C° 0 mm 5 m/s 738 mmHg 80%
    09:00 +17°C° 0 mm 6 m/s 739 mmHg 75%
    10:00 +19°C° 0 mm 5 m/s 739 mmHg 67%
    11:00 +20°C° 0 mm 5 m/s 740 mmHg 60%
    12:00 +21°C° 0 mm 5 m/s 740 mmHg 52%
    13:00 +21°C° 0 mm 5 m/s 740 mmHg 50%
    14:00 +21°C° 0 mm 5 m/s 740 mmHg 48%
    15:00 +22°C° 0 mm 5 m/s 741 mmHg 46%
    16:00 +21°C° 0 mm 4 m/s 741 mmHg 50%
    17:00 +21°C° 0 mm 3 m/s 741 mmHg 54%
    18:00 +20°C° 0 mm 3 m/s 741 mmHg 58%
    19:00 +19°C° 0 mm 2 m/s 741 mmHg 63%
    20:00 +17°C° 0 mm 2 m/s 742 mmHg 68%
    21:00 +15°C° 0 mm 2 m/s 742 mmHg 73%
    22:00 +15°C° 0 mm 2 m/s 742 mmHg 75%
    23:00 +14°C° 0 mm 2 m/s 742 mmHg 77%
    Arată mai mult